Time,TemperatureF,DewpointF,PressureIn,WindDirection,WindDirectionDegrees,WindSpeedMPH,WindSpeedGustMPH,Humidity,HourlyPrecipIn,Conditions,Clouds,dailyrainin,SoftwareType,DateUTC
2013-03-10 00:00:00,34.1,12.3,30.41,West,264,1.0,3.0,40,0.00,,,0.00,Wunderground v.1.15,2013-03-10 08:00:00,
2013-03-10 00:06:00,34.9,11.2,30.41,WSW,256,2.0,3.0,37,0.00,,,0.00,Wunderground v.1.15,2013-03-10 08:06:00,
2013-03-10 00:12:00,34.5,9.6,30.41,West,263,2.0,2.0,35,0.00,,,0.00,Wunderground v.1.15,2013-03-10 08:12:00,
2013-03-10 00:18:00,33.8,8.4,30.41,WSW,250,2.0,3.0,34,0.00,,,0.00,Wunderground v.1.15,2013-03-10 08:18:00,
2013-03-10 00:24:00,31.6,7.7,30.42,SW,234,2.0,2.0,36,0.00,,,0.00,Wunderground v.1.15,2013-03-10 08:24:00,
2013-03-10 00:30:00,31.2,7.9,30.43,WSW,242,1.0,4.0,37,0.00,,,0.00,Wunderground v.1.15,2013-03-10 08:30:00,
2013-03-10 00:36:00,31.0,7.7,30.43,West,272,3.0,5.0,37,0.00,,,0.00,Wunderground v.1.15,2013-03-10 08:36:00,
2013-03-10 00:41:00,30.8,7.6,30.43,WSW,244,4.0,4.0,37,0.00,,,0.00,Wunderground v.1.15,2013-03-10 08:41:00,
2013-03-10 00:47:00,30.3,7.7,30.43,WSW,245,3.0,4.0,38,0.00,,,0.00,Wunderground v.1.15,2013-03-10 08:47:00,
2013-03-10 00:53:00,31.4,8.1,30.43,West,259,1.0,2.0,37,0.00,,,0.00,Wunderground v.1.15,2013-03-10 08:53:00,
2013-03-10 00:59:00,31.4,7.5,30.43,West,272,1.0,2.0,36,0.00,,,0.00,Wunderground v.1.15,2013-03-10 08:59:00,
2013-03-10 01:05:00,31.0,7.7,30.43,West,263,1.0,1.0,37,0.00,,,0.00,Wunderground v.1.15,2013-03-10 09:05:00,
2013-03-10 01:11:00,30.9,7.6,30.43,WSW,255,0.0,0.0,37,0.00,,,0.00,Wunderground v.1.15,2013-03-10 09:11:00,
2013-03-10 01:17:00,30.6,7.4,30.43,WSW,255,0.0,1.0,37,0.00,,,0.00,Wunderground v.1.15,2013-03-10 09:17:00,
2013-03-10 01:23:00,30.4,7.8,30.44,WSW,251,1.0,4.0,38,0.00,,,0.00,Wunderground v.1.15,2013-03-10 09:23:00,
2013-03-10 01:28:00,31.0,8.9,30.44,West,264,2.0,4.0,39,0.00,,,0.00,Wunderground v.1.15,2013-03-10 09:28:00,
2013-03-10 01:34:00,31.1,8.4,30.44,WSW,254,3.0,3.0,38,0.00,,,0.00,Wunderground v.1.15,2013-03-10 09:34:00,
2013-03-10 01:40:00,31.8,9.6,30.44,West,275,1.0,2.0,39,0.00,,,0.00,Wunderground v.1.15,2013-03-10 09:40:00,
2013-03-10 01:46:00,32.3,8.9,30.43,West,278,1.0,2.0,37,0.00,,,0.00,Wunderground v.1.15,2013-03-10 09:46:00,
2013-03-10 01:52:00,32.0,8.6,30.44,WNW,298,1.0,2.0,37,0.00,,,0.00,Wunderground v.1.15,2013-03-10 09:52:00,
2013-03-10 01:58:00,31.2,8.5,30.44,West,277,2.0,3.0,38,0.00,,,0.00,Wunderground v.1.15,2013-03-10 09:58:00,
2013-03-10 03:03:00,31.5,9.4,30.44,WSW,245,2.0,3.0,39,0.00,,,0.00,Wunderground v.1.15,2013-03-10 10:03:00,
2013-03-10 03:09:00,31.8,9.6,30.44,West,280,2.0,4.0,39,0.00,,,0.00,Wunderground v.1.15,2013-03-10 10:09:00,
2013-03-10 03:14:00,31.6,9.4,30.44,WNW,283,2.0,5.0,39,0.00,,,0.00,Wunderground v.1.15,2013-03-10 10:14:00,
2013-03-10 03:20:00,31.2,9.1,30.44,WNW,300,2.0,2.0,39,0.00,,,0.00,Wunderground v.1.15,2013-03-10 10:20:00,
2013-03-10 03:26:00,30.6,9.1,30.44,West,269,1.0,2.0,40,0.00,,,0.00,Wunderground v.1.15,2013-03-10 10:26:00,
2013-03-10 03:32:00,30.2,9.3,30.45,WSW,245,1.0,1.0,41,0.00,,,0.00,Wunderground v.1.15,2013-03-10 10:32:00,
2013-03-10 03:38:00,29.0,9.3,30.44,West,266,2.0,3.0,43,0.00,,,0.00,Wunderground v.1.15,2013-03-10 10:38:00,
2013-03-10 03:44:00,28.6,9.4,30.44,SW,231,2.0,4.0,44,0.00,,,0.00,Wunderground v.1.15,2013-03-10 10:44:00,
2013-03-10 03:50:00,28.7,10.5,30.44,SW,231,3.0,3.0,46,0.00,,,0.00,Wunderground v.1.15,2013-03-10 10:50:00,
2013-03-10 03:55:00,30.7,12.3,30.44,West,262,2.0,3.0,46,0.00,,,0.00,Wunderground v.1.15,2013-03-10 10:55:00,
2013-03-10 04:00:00,31.2,11.8,30.44,WSW,239,1.0,2.0,44,0.00,,,0.00,Wunderground v.1.15,2013-03-10 11:00:00,
2013-03-10 04:05:00,31.2,13.3,30.44,SW,229,2.0,4.0,47,0.00,,,0.00,Wunderground v.1.15,2013-03-10 11:05:00,
2013-03-10 04:11:00,31.0,13.6,30.44,WSW,245,1.0,1.0,48,0.00,,,0.00,Wunderground v.1.15,2013-03-10 11:11:00,
2013-03-10 04:17:00,31.8,12.8,30.44,WSW,254,1.0,1.0,45,0.00,,,0.00,Wunderground v.1.15,2013-03-10 11:17:00,
2013-03-10 04:23:00,31.7,12.2,30.44,WSW,248,1.0,3.0,44,0.00,,,0.00,Wunderground v.1.15,2013-03-10 11:23:00,
2013-03-10 04:29:00,32.1,12.6,30.45,West,259,2.0,3.0,44,0.00,,,0.00,Wunderground v.1.15,2013-03-10 11:29:00,
2013-03-10 04:35:00,30.7,12.8,30.45,West,262,3.0,3.0,47,0.00,,,0.00,Wunderground v.1.15,2013-03-10 11:35:00,
2013-03-10 04:41:00,30.7,12.8,30.45,West,275,3.0,3.0,47,0.00,,,0.00,Wunderground v.1.15,2013-03-10 11:41:00,
2013-03-10 04:46:00,30.9,13.0,30.45,West,264,2.0,3.0,47,0.00,,,0.00,Wunderground v.1.15,2013-03-10 11:46:00,
2013-03-10 04:52:00,29.5,11.2,30.45,WSW,249,2.0,2.0,46,0.00,,,0.00,Wunderground v.1.15,2013-03-10 11:52:00,
2013-03-10 04:58:00,29.0,11.7,30.46,West,278,2.0,3.0,48,0.00,,,0.00,Wunderground v.1.15,2013-03-10 11:58:00,
2013-03-10 05:04:00,29.2,11.0,30.46,West,267,3.0,5.0,46,0.00,,,0.00,Wunderground v.1.15,2013-03-10 12:04:00,
2013-03-10 05:10:00,28.9,10.7,30.46,WSW,256,3.0,3.0,46,0.00,,,0.00,Wunderground v.1.15,2013-03-10 12:10:00,
2013-03-10 05:16:00,27.8,10.2,30.46,WSW,238,2.0,4.0,47,0.00,,,0.00,Wunderground v.1.15,2013-03-10 12:16:00,
2013-03-10 05:22:00,27.8,10.6,30.46,WSW,241,2.0,3.0,48,0.00,,,0.00,Wunderground v.1.15,2013-03-10 12:22:00,
2013-03-10 05:28:00,28.9,11.6,30.46,WSW,239,2.0,3.0,48,0.00,,,0.00,Wunderground v.1.15,2013-03-10 12:28:00,
2013-03-10 05:34:00,28.9,11.6,30.46,WSW,239,3.0,3.0,48,0.00,,,0.00,Wunderground v.1.15,2013-03-10 12:34:00,
2013-03-10 05:39:00,-999.9,-99.9,30.46,North,32767,-999.0,3.0,255,-99.99,,,0.00,Wunderground v.1.15,2013-03-10 12:39:00,
2013-03-10 05:44:00,-999.9,-99.9,30.46,North,32767,-999.0,0.0,255,-99.99,,,0.00,Wunderground v.1.15,2013-03-10 12:44:00,
2013-03-10 05:50:00,-999.9,-99.9,30.46,North,32767,-999.0,0.0,255,-99.99,,,0.00,Wunderground v.1.15,2013-03-10 12:50:00,
2013-03-10 05:56:00,-999.9,-99.9,30.45,North,32767,-999.0,0.0,255,-99.99,,,0.00,Wunderground v.1.15,2013-03-10 12:56:00,
2013-03-10 06:01:00,-999.9,-99.9,30.45,North,32767,-999.0,0.0,255,-99.99,,,0.00,Wunderground v.1.15,2013-03-10 13:01:00,
2013-03-10 06:07:00,-999.9,-99.9,30.44,North,32767,-999.0,0.0,255,-99.99,,,0.00,Wunderground v.1.15,2013-03-10 13:07:00,
2013-03-10 06:12:00,-999.9,-99.9,30.43,North,32767,-999.0,0.0,255,-99.99,,,0.00,Wunderground v.1.15,2013-03-10 13:12:00,
2013-03-10 06:17:00,-999.9,-99.9,30.43,North,32767,-999.0,0.0,255,-99.99,,,0.00,Wunderground v.1.15,2013-03-10 13:17:00,
2013-03-10 06:23:00,-999.9,-99.9,30.43,North,32767,-999.0,0.0,255,-99.99,,,0.00,Wunderground v.1.15,2013-03-10 13:23:00,
2013-03-10 06:29:00,-999.9,-99.9,30.44,North,32767,-999.0,0.0,255,-99.99,,,0.00,Wunderground v.1.15,2013-03-10 13:29:00,
2013-03-10 06:34:00,-999.9,-99.9,30.44,North,32767,-999.0,0.0,255,-99.99,,,0.00,Wunderground v.1.15,2013-03-10 13:34:00,
2013-03-10 06:40:00,-999.9,-99.9,30.43,North,32767,-999.0,0.0,255,-99.99,,,0.00,Wunderground v.1.15,2013-03-10 13:40:00,
2013-03-10 06:46:00,-999.9,-99.9,30.43,North,32767,-999.0,0.0,255,-99.99,,,0.00,Wunderground v.1.15,2013-03-10 13:46:00,
2013-03-10 06:52:00,-999.9,-99.9,30.43,North,32767,-999.0,0.0,255,-99.99,,,0.00,Wunderground v.1.15,2013-03-10 13:52:00,
2013-03-10 06:58:00,-999.9,-99.9,30.43,North,32767,-999.0,0.0,255,-99.99,,,0.00,Wunderground v.1.15,2013-03-10 13:58:00,
2013-03-10 07:03:00,-999.9,-99.9,30.43,North,32767,-999.0,0.0,255,-99.99,,,0.00,Wunderground v.1.15,2013-03-10 14:03:00,
2013-03-10 07:09:00,-999.9,-99.9,30.43,North,32767,-999.0,0.0,255,-99.99,,,0.00,Wunderground v.1.15,2013-03-10 14:09:00,
2013-03-10 07:15:00,-999.9,-99.9,30.43,North,32767,-999.0,0.0,255,-99.99,,,0.00,Wunderground v.1.15,2013-03-10 14:15:00,
2013-03-10 07:20:00,-999.9,-99.9,30.43,North,32767,-999.0,0.0,255,-99.99,,,0.00,Wunderground v.1.15,2013-03-10 14:20:00,
2013-03-10 07:26:00,-999.9,-99.9,30.43,North,32767,-999.0,0.0,255,-99.99,,,0.00,Wunderground v.1.15,2013-03-10 14:26:00,
2013-03-10 07:32:00,-999.9,-99.9,30.43,North,32767,-999.0,0.0,255,-99.99,,,0.00,Wunderground v.1.15,2013-03-10 14:32:00,
2013-03-10 07:38:00,-999.9,-99.9,30.44,North,32767,-999.0,0.0,255,-99.99,,,0.00,Wunderground v.1.15,2013-03-10 14:38:00,
2013-03-10 07:43:00,-999.9,-99.9,30.44,North,32767,-999.0,0.0,255,-99.99,,,0.00,Wunderground v.1.15,2013-03-10 14:43:00,
2013-03-10 07:48:00,-999.9,-99.9,30.44,North,32767,-999.0,0.0,255,-99.99,,,0.00,Wunderground v.1.15,2013-03-10 14:48:00,
2013-03-10 07:54:00,-999.9,-99.9,30.44,North,32767,-999.0,0.0,255,-99.99,,,0.00,Wunderground v.1.15,2013-03-10 14:54:00,
2013-03-10 08:00:00,28.9,12.6,30.44,WSW,255,3.0,3.0,50,0.00,,,0.00,Wunderground v.1.15,2013-03-10 15:00:00,
2013-03-10 08:06:00,29.9,13.0,30.45,WSW,241,1.0,3.0,49,0.00,,,0.00,Wunderground v.1.15,2013-03-10 15:06:00,
2013-03-10 08:11:00,30.9,13.5,30.45,WSW,246,0.0,1.0,48,0.00,,,0.00,Wunderground v.1.15,2013-03-10 15:11:00,
2013-03-10 08:17:00,32.1,13.6,30.46,West,259,0.0,4.0,46,0.00,,,0.00,Wunderground v.1.15,2013-03-10 15:17:00,
2013-03-10 08:22:00,32.9,13.3,30.46,WSW,254,0.0,0.0,44,0.00,,,0.00,Wunderground v.1.15,2013-03-10 15:22:00,
2013-03-10 08:28:00,34.0,13.8,30.46,WSW,251,0.0,5.0,43,0.00,,,0.00,Wunderground v.1.15,2013-03-10 15:28:00,
2013-03-10 08:33:00,34.8,13.5,30.47,WSW,244,1.0,3.0,41,0.00,,,0.00,Wunderground v.1.15,2013-03-10 15:33:00,
2013-03-10 08:39:00,35.2,13.8,30.47,WSW,248,3.0,4.0,41,0.00,,,0.00,Wunderground v.1.15,2013-03-10 15:39:00,
2013-03-10 08:45:00,35.7,13.7,30.47,WSW,245,4.0,5.0,40,0.00,,,0.00,Wunderground v.1.15,2013-03-10 15:45:00,
2013-03-10 08:51:00,36.2,14.2,30.47,WSW,241,2.0,3.0,40,0.00,,,0.00,Wunderground v.1.15,2013-03-10 15:51:00,
2013-03-10 08:56:00,36.8,13.5,30.47,SW,235,0.0,3.0,38,0.00,,,0.00,Wunderground v.1.15,2013-03-10 15:56:00,
2013-03-10 09:02:00,37.4,14.1,30.48,WSW,247,0.0,0.0,38,0.00,,,0.00,Wunderground v.1.15,2013-03-10 16:02:00,
2013-03-10 09:08:00,38.0,14.0,30.48,WSW,241,0.0,0.0,37,0.00,,,0.00,Wunderground v.1.15,2013-03-10 16:08:00,
2013-03-10 09:14:00,38.5,13.8,30.48,WSW,250,0.0,0.0,36,0.00,,,0.00,Wunderground v.1.15,2013-03-10 16:14:00,
2013-03-10 09:20:00,39.0,13.6,30.48,WSW,249,0.0,0.0,35,0.00,,,0.00,Wunderground v.1.15,2013-03-10 16:20:00,
2013-03-10 09:25:00,39.6,14.2,30.49,WSW,257,0.0,0.0,35,0.00,,,0.00,Wunderground v.1.15,2013-03-10 16:25:00,
2013-03-10 09:31:00,40.1,13.9,30.49,West,269,0.0,0.0,34,0.00,,,0.00,Wunderground v.1.15,2013-03-10 16:31:00,
2013-03-10 09:37:00,40.7,14.5,30.49,WSW,240,0.0,2.0,34,0.00,,,0.00,Wunderground v.1.15,2013-03-10 16:37:00,
2013-03-10 09:43:00,41.3,14.3,30.50,SW,231,0.0,0.0,33,0.00,,,0.00,Wunderground v.1.15,2013-03-10 16:43:00,
2013-03-10 09:49:00,42.0,14.2,30.50,West,261,0.0,0.0,32,0.00,,,0.00,Wunderground v.1.15,2013-03-10 16:49:00,
2013-03-10 09:54:00,42.7,14.8,30.50,WNW,296,0.0,0.0,32,0.00,,,0.00,Wunderground v.1.15,2013-03-10 16:54:00,
2013-03-10 10:00:00,42.9,14.3,30.50,WNW,286,0.0,0.0,31,0.00,,,0.00,Wunderground v.1.15,2013-03-10 17:00:00,
2013-03-10 10:06:00,43.3,14.6,30.50,WNW,292,0.0,0.0,31,0.00,,,0.00,Wunderground v.1.15,2013-03-10 17:06:00,
2013-03-10 10:12:00,43.6,14.2,30.50,West,274,0.0,0.0,30,0.00,,,0.00,Wunderground v.1.15,2013-03-10 17:12:00,
2013-03-10 10:18:00,44.1,14.6,30.50,West,259,0.0,0.0,30,0.00,,,0.00,Wunderground v.1.15,2013-03-10 17:18:00,
2013-03-10 10:23:00,44.6,14.3,30.49,WSW,255,0.0,0.0,29,0.00,,,0.00,Wunderground v.1.15,2013-03-10 17:23:00,
2013-03-10 10:29:00,45.2,14.0,30.49,West,259,0.0,0.0,28,0.00,,,0.00,Wunderground v.1.15,2013-03-10 17:29:00,
2013-03-10 10:35:00,46.1,13.9,30.49,West,259,0.0,0.0,27,0.00,,,0.00,Wunderground v.1.15,2013-03-10 17:35:00,
2013-03-10 10:40:00,46.7,14.4,30.49,North,359,0.0,0.0,27,0.00,,,0.00,Wunderground v.1.15,2013-03-10 17:40:00,
2013-03-10 10:46:00,47.3,14.1,30.49,East,79,0.0,0.0,26,0.00,,,0.00,Wunderground v.1.15,2013-03-10 17:46:00,
2013-03-10 10:52:00,47.1,13.9,30.48,ESE,114,0.0,0.0,26,0.00,,,0.00,Wunderground v.1.15,2013-03-10 17:52:00,
2013-03-10 10:57:00,47.1,13.9,30.48,SSE,150,0.0,0.0,26,0.00,,,0.00,Wunderground v.1.15,2013-03-10 17:57:00,
2013-03-10 11:03:00,48.4,14.1,30.48,SSW,210,0.0,0.0,25,0.00,,,0.00,Wunderground v.1.15,2013-03-10 18:03:00,
2013-03-10 11:09:00,48.6,13.4,30.47,SE,124,0.0,0.0,24,0.00,,,0.00,Wunderground v.1.15,2013-03-10 18:09:00,
2013-03-10 11:15:00,47.9,12.8,30.47,ENE,65,0.0,0.0,24,0.00,,,0.00,Wunderground v.1.15,2013-03-10 18:15:00,
2013-03-10 11:20:00,48.0,12.9,30.47,West,261,0.0,0.0,24,0.00,,,0.00,Wunderground v.1.15,2013-03-10 18:20:00,
2013-03-10 11:26:00,47.9,12.8,30.46,NNW,346,0.0,0.0,24,0.00,,,0.00,Wunderground v.1.15,2013-03-10 18:26:00,
2013-03-10 11:32:00,47.9,12.8,30.46,East,94,0.0,0.0,24,0.00,,,0.00,Wunderground v.1.15,2013-03-10 18:32:00,
2013-03-10 11:38:00,48.4,13.2,30.45,SE,139,0.0,0.0,24,0.00,,,0.00,Wunderground v.1.15,2013-03-10 18:38:00,
2013-03-10 11:44:00,48.9,13.6,30.45,East,100,0.0,0.0,24,0.00,,,0.00,Wunderground v.1.15,2013-03-10 18:44:00,
2013-03-10 11:49:00,48.9,13.6,30.45,WSW,248,0.0,0.0,24,0.00,,,0.00,Wunderground v.1.15,2013-03-10 18:49:00,
2013-03-10 11:55:00,49.4,13.1,30.45,WNW,290,0.0,0.0,23,0.00,,,0.00,Wunderground v.1.15,2013-03-10 18:55:00,
2013-03-10 12:00:00,49.6,13.3,30.44,WSW,245,0.0,0.0,23,0.00,,,0.00,Wunderground v.1.15,2013-03-10 19:00:00,
2013-03-10 12:06:00,50.5,14.0,30.44,ENE,77,0.0,0.0,23,0.00,,,0.00,Wunderground v.1.15,2013-03-10 19:06:00,
2013-03-10 12:11:00,50.2,13.8,30.44,SE,128,0.0,0.0,23,0.00,,,0.00,Wunderground v.1.15,2013-03-10 19:11:00,
2013-03-10 12:17:00,50.2,12.8,30.44,ENE,74,0.0,0.0,22,0.00,,,0.00,Wunderground v.1.15,2013-03-10 19:17:00,
2013-03-10 12:23:00,49.8,13.4,30.44,ESE,113,0.0,0.0,23,0.00,,,0.00,Wunderground v.1.15,2013-03-10 19:23:00,
2013-03-10 12:29:00,50.0,12.6,30.43,East,82,0.0,0.0,22,0.00,,,0.00,Wunderground v.1.15,2013-03-10 19:29:00,
2013-03-10 12:35:00,50.0,12.6,30.42,ENE,66,0.0,0.0,22,0.00,,,0.00,Wunderground v.1.15,2013-03-10 19:35:00,
2013-03-10 12:40:00,50.0,12.6,30.43,NE,39,0.0,0.0,22,0.00,,,0.00,Wunderground v.1.15,2013-03-10 19:40:00,
2013-03-10 12:45:00,49.9,12.5,30.43,North,353,0.0,0.0,22,0.00,,,0.00,Wunderground v.1.15,2013-03-10 19:45:00,
2013-03-10 12:50:00,50.7,13.2,30.43,SSW,209,0.0,0.0,22,0.00,,,0.00,Wunderground v.1.15,2013-03-10 19:50:00,
2013-03-10 12:56:00,51.4,12.7,30.43,ESE,119,0.0,0.0,21,0.00,,,0.00,Wunderground v.1.15,2013-03-10 19:56:00,
2013-03-10 13:02:00,51.0,11.3,30.43,NNW,333,0.0,0.0,20,0.00,,,0.00,Wunderground v.1.15,2013-03-10 20:02:00,
2013-03-10 13:07:00,51.1,11.4,30.42,NE,47,0.0,0.0,20,0.00,,,0.00,Wunderground v.1.15,2013-03-10 20:07:00,
2013-03-10 13:12:00,51.6,11.8,30.42,NNE,12,0.0,0.0,20,0.00,,,0.00,Wunderground v.1.15,2013-03-10 20:12:00,
2013-03-10 13:17:00,51.4,11.6,30.42,NNE,15,0.0,0.0,20,0.00,,,0.00,Wunderground v.1.15,2013-03-10 20:17:00,
2013-03-10 13:23:00,51.5,11.7,30.41,NNE,23,0.0,0.0,20,0.00,,,0.00,Wunderground v.1.15,2013-03-10 20:23:00,
2013-03-10 13:28:00,52.3,11.2,30.41,North,11,0.0,0.0,19,0.00,,,0.00,Wunderground v.1.15,2013-03-10 20:28:00,
2013-03-10 13:34:00,52.9,10.5,30.40,East,94,0.0,0.0,18,0.00,,,0.00,Wunderground v.1.15,2013-03-10 20:34:00,
2013-03-10 13:40:00,52.5,11.4,30.40,North,349,0.0,0.0,19,0.00,,,0.00,Wunderground v.1.15,2013-03-10 20:40:00,
2013-03-10 13:46:00,52.5,11.4,30.40,NE,35,0.0,0.0,19,0.00,,,0.00,Wunderground v.1.15,2013-03-10 20:46:00,
2013-03-10 13:52:00,52.7,10.3,30.39,WSW,252,0.0,0.0,18,0.00,,,0.00,Wunderground v.1.15,2013-03-10 20:52:00,
2013-03-10 13:58:00,52.8,11.6,30.39,WSW,238,0.0,0.0,19,0.00,,,0.00,Wunderground v.1.15,2013-03-10 20:58:00,
2013-03-10 14:04:00,53.3,10.8,30.38,ENE,59,0.0,0.0,18,0.00,,,0.00,Wunderground v.1.15,2013-03-10 21:04:00,
2013-03-10 14:10:00,52.9,10.5,30.38,NE,51,0.0,0.0,18,0.00,,,0.00,Wunderground v.1.15,2013-03-10 21:10:00,
2013-03-10 14:17:00,53.2,10.7,30.38,NNE,27,0.0,0.0,18,0.00,,,0.00,Wunderground v.1.15,2013-03-10 21:17:00,
2013-03-10 14:22:00,53.7,9.8,30.38,SW,215,0.0,0.0,17,0.00,,,0.00,Wunderground v.1.15,2013-03-10 21:22:00,
2013-03-10 14:27:00,54.1,10.2,30.38,NE,52,0.0,0.0,17,0.00,,,0.00,Wunderground v.1.15,2013-03-10 21:27:00,
2013-03-10 14:33:00,53.7,9.8,30.37,WNW,301,0.0,0.0,17,0.00,,,0.00,Wunderground v.1.15,2013-03-10 21:33:00,
2013-03-10 14:38:00,53.9,10.0,30.37,WNW,283,0.0,0.0,17,0.00,,,0.00,Wunderground v.1.15,2013-03-10 21:38:00,
2013-03-10 14:44:00,54.3,9.0,30.37,SE,146,0.0,0.0,16,0.00,,,0.00,Wunderground v.1.15,2013-03-10 21:44:00,
2013-03-10 14:50:00,54.0,7.3,30.36,ESE,114,0.0,0.0,15,0.00,,,0.00,Wunderground v.1.15,2013-03-10 21:50:00,
2013-03-10 14:55:00,54.6,9.2,30.36,SW,214,0.0,0.0,16,0.00,,,0.00,Wunderground v.1.15,2013-03-10 21:55:00,
2013-03-10 15:01:00,55.5,8.5,30.36,East,79,0.0,0.0,15,0.00,,,0.00,Wunderground v.1.15,2013-03-10 22:01:00,
2013-03-10 15:07:00,54.7,9.3,30.36,WSW,255,0.0,0.0,16,0.00,,,0.00,Wunderground v.1.15,2013-03-10 22:07:00,
2013-03-10 15:13:00,54.9,10.8,30.36,NE,52,0.0,0.0,17,0.00,,,0.00,Wunderground v.1.15,2013-03-10 22:13:00,
2013-03-10 15:18:00,54.9,9.5,30.36,NE,56,0.0,0.0,16,0.00,,,0.00,Wunderground v.1.15,2013-03-10 22:18:00,
2013-03-10 15:23:00,54.6,9.2,30.36,ENE,70,0.0,0.0,16,0.00,,,0.00,Wunderground v.1.15,2013-03-10 22:23:00,
2013-03-10 15:29:00,54.5,9.1,30.36,ENE,66,0.0,0.0,16,0.00,,,0.00,Wunderground v.1.15,2013-03-10 22:29:00,
2013-03-10 15:35:00,54.3,9.0,30.36,ESE,115,0.0,0.0,16,0.00,,,0.00,Wunderground v.1.15,2013-03-10 22:35:00,
2013-03-10 15:41:00,54.9,8.0,30.36,ENE,60,0.0,0.0,15,0.00,,,0.00,Wunderground v.1.15,2013-03-10 22:41:00,
2013-03-10 15:46:00,54.8,6.4,30.36,NE,49,0.0,0.0,14,0.00,,,0.00,Wunderground v.1.15,2013-03-10 22:46:00,
2013-03-10 15:52:00,54.7,6.3,30.35,NNW,333,0.0,0.0,14,0.00,,,0.00,Wunderground v.1.15,2013-03-10 22:52:00,
2013-03-10 15:57:00,54.6,6.3,30.36,West,267,0.0,0.0,14,0.00,,,0.00,Wunderground v.1.15,2013-03-10 22:57:00,
2013-03-10 16:02:00,55.4,6.9,30.36,WSW,258,0.0,0.0,14,0.00,,,0.00,Wunderground v.1.15,2013-03-10 23:02:00,
2013-03-10 16:08:00,55.3,6.8,30.36,NNE,30,0.0,0.0,14,0.00,,,0.00,Wunderground v.1.15,2013-03-10 23:08:00,
2013-03-10 16:13:00,55.1,8.2,30.36,NE,53,0.0,0.0,15,0.00,,,0.00,Wunderground v.1.15,2013-03-10 23:13:00,
2013-03-10 16:19:00,55.1,8.2,30.35,NNW,345,0.0,0.0,15,0.00,,,0.00,Wunderground v.1.15,2013-03-10 23:19:00,
2013-03-10 16:25:00,55.3,8.4,30.35,WNW,286,0.0,0.0,15,0.00,,,0.00,Wunderground v.1.15,2013-03-10 23:25:00,
2013-03-10 16:31:00,56.3,9.2,30.35,NW,319,0.0,0.0,15,0.00,,,0.00,Wunderground v.1.15,2013-03-10 23:31:00,
2013-03-10 16:36:00,56.6,7.9,30.35,NNE,23,0.0,0.0,14,0.00,,,0.00,Wunderground v.1.15,2013-03-10 23:36:00,
2013-03-10 16:41:00,56.0,7.4,30.35,ENE,68,0.0,0.0,14,0.00,,,0.00,Wunderground v.1.15,2013-03-10 23:41:00,
2013-03-10 16:47:00,55.2,6.7,30.35,NNE,23,0.0,0.0,14,0.00,,,0.00,Wunderground v.1.15,2013-03-10 23:47:00,
2013-03-10 16:52:00,55.0,8.1,30.35,NNE,21,0.0,0.0,15,0.00,,,0.00,Wunderground v.1.15,2013-03-10 23:52:00,
2013-03-10 16:58:00,55.5,8.5,30.34,NNE,14,0.0,0.0,15,0.00,,,0.00,Wunderground v.1.15,2013-03-10 23:58:00,
2013-03-10 17:04:00,55.1,8.2,30.34,NNW,343,0.0,0.0,15,0.00,,,0.00,Wunderground v.1.15,2013-03-11 00:04:00,
2013-03-10 17:09:00,55.2,8.3,30.35,NNW,339,0.0,0.0,15,0.00,,,0.00,Wunderground v.1.15,2013-03-11 00:09:00,
2013-03-10 17:14:00,55.4,8.4,30.35,NNW,335,0.0,0.0,15,0.00,,,0.00,Wunderground v.1.15,2013-03-11 00:14:00,
2013-03-10 17:20:00,55.4,8.4,30.35,NW,311,0.0,0.0,15,0.00,,,0.00,Wunderground v.1.15,2013-03-11 00:20:00,
2013-03-10 17:25:00,55.6,7.1,30.35,ENE,68,0.0,0.0,14,0.00,,,0.00,Wunderground v.1.15,2013-03-11 00:25:00,
2013-03-10 17:30:00,55.2,6.7,30.35,NE,51,0.0,0.0,14,0.00,,,0.00,Wunderground v.1.15,2013-03-11 00:30:00,
2013-03-10 17:35:00,55.0,8.1,30.35,NNE,30,0.0,0.0,15,0.00,,,0.00,Wunderground v.1.15,2013-03-11 00:35:00,
2013-03-10 17:41:00,55.0,8.1,30.35,NNW,334,0.0,0.0,15,0.00,,,0.00,Wunderground v.1.15,2013-03-11 00:41:00,
2013-03-10 17:46:00,55.0,8.1,30.34,NW,311,0.0,0.0,15,0.00,,,0.00,Wunderground v.1.15,2013-03-11 00:46:00,
2013-03-10 17:52:00,54.8,6.4,30.34,NNE,32,0.0,0.0,14,0.00,,,0.00,Wunderground v.1.15,2013-03-11 00:52:00,
2013-03-10 17:57:00,54.7,6.3,30.34,NE,36,0.0,0.0,14,0.00,,,0.00,Wunderground v.1.15,2013-03-11 00:57:00,
2013-03-10 18:02:00,54.6,6.3,30.34,NE,37,0.0,0.0,14,0.00,,,0.00,Wunderground v.1.15,2013-03-11 01:02:00,
2013-03-10 18:08:00,54.4,6.1,30.34,North,352,0.0,0.0,14,0.00,,,0.00,Wunderground v.1.15,2013-03-11 01:08:00,
2013-03-10 18:14:00,54.3,6.0,30.34,NE,49,0.0,0.0,14,0.00,,,0.00,Wunderground v.1.15,2013-03-11 01:14:00,
2013-03-10 18:19:00,54.3,7.5,30.34,ENE,63,0.0,0.0,15,0.00,,,0.00,Wunderground v.1.15,2013-03-11 01:19:00,
2013-03-10 18:24:00,54.4,7.6,30.34,ENE,72,0.0,0.0,15,0.00,,,0.00,Wunderground v.1.15,2013-03-11 01:24:00,
2013-03-10 18:29:00,54.4,7.6,30.34,ENE,77,0.0,0.0,15,0.00,,,0.00,Wunderground v.1.15,2013-03-11 01:29:00,
2013-03-10 18:35:00,54.1,7.4,30.34,ENE,68,0.0,0.0,15,0.00,,,0.00,Wunderground v.1.15,2013-03-11 01:35:00,
2013-03-10 18:41:00,53.6,7.0,30.34,ENE,62,0.0,0.0,15,0.00,,,0.00,Wunderground v.1.15,2013-03-11 01:41:00,
2013-03-10 18:46:00,53.2,6.7,30.35,ENE,63,0.0,0.0,15,0.00,,,0.00,Wunderground v.1.15,2013-03-11 01:46:00,
2013-03-10 18:52:00,52.4,6.0,30.34,East,82,0.0,0.0,15,0.00,,,0.00,Wunderground v.1.15,2013-03-11 01:52:00,
2013-03-10 18:58:00,51.6,6.8,30.34,East,82,0.0,0.0,16,0.00,,,0.00,Wunderground v.1.15,2013-03-11 01:58:00,
2013-03-10 19:04:00,50.7,6.1,30.34,East,86,0.0,0.0,16,0.00,,,0.00,Wunderground v.1.15,2013-03-11 02:04:00,
2013-03-10 19:09:00,50.1,6.9,30.35,East,86,0.0,0.0,17,0.00,,,0.00,Wunderground v.1.15,2013-03-11 02:09:00,
2013-03-10 19:15:00,49.6,6.5,30.35,East,86,0.0,0.0,17,0.00,,,0.00,Wunderground v.1.15,2013-03-11 02:15:00,
2013-03-10 19:21:00,49.6,6.5,30.35,SE,132,0.0,0.0,17,0.00,,,0.00,Wunderground v.1.15,2013-03-11 02:21:00,
2013-03-10 19:26:00,49.7,6.6,30.34,SE,138,0.0,0.0,17,0.00,,,0.00,Wunderground v.1.15,2013-03-11 02:26:00,
2013-03-10 19:32:00,49.3,6.2,30.35,SE,138,0.0,0.0,17,0.00,,,0.00,Wunderground v.1.15,2013-03-11 02:32:00,
2013-03-10 19:38:00,49.0,6.0,30.35,SE,138,0.0,0.0,17,0.00,,,0.00,Wunderground v.1.15,2013-03-11 02:38:00,
2013-03-10 19:44:00,49.1,6.1,30.35,SSE,147,0.0,0.0,17,0.00,,,0.00,Wunderground v.1.15,2013-03-11 02:44:00,
2013-03-10 19:49:00,49.3,6.2,30.35,SSE,148,0.0,0.0,17,0.00,,,0.00,Wunderground v.1.15,2013-03-11 02:49:00,
2013-03-10 19:55:00,49.5,6.4,30.35,SSE,148,0.0,0.0,17,0.00,,,0.00,Wunderground v.1.15,2013-03-11 02:55:00,
2013-03-10 20:00:00,49.5,5.1,30.35,SE,146,0.0,0.0,16,0.00,,,0.00,Wunderground v.1.15,2013-03-11 03:00:00,
2013-03-10 20:06:00,49.5,5.1,30.35,SSE,147,0.0,0.0,16,0.00,,,0.00,Wunderground v.1.15,2013-03-11 03:06:00,
2013-03-10 20:11:00,49.3,6.2,30.35,South,169,0.0,0.0,17,0.00,,,0.00,Wunderground v.1.15,2013-03-11 03:11:00,
2013-03-10 20:17:00,48.5,5.6,30.35,South,188,0.0,0.0,17,0.00,,,0.00,Wunderground v.1.15,2013-03-11 03:17:00,
2013-03-10 20:22:00,47.8,6.3,30.36,SSW,199,0.0,0.0,18,0.00,,,0.00,Wunderground v.1.15,2013-03-11 03:22:00,
2013-03-10 20:28:00,47.0,6.8,30.36,SSW,203,0.0,0.0,19,0.00,,,0.00,Wunderground v.1.15,2013-03-11 03:28:00,
2013-03-10 20:35:00,45.9,5.9,30.36,SSW,203,0.0,0.0,19,0.00,,,0.00,Wunderground v.1.15,2013-03-11 03:35:00,
2013-03-10 20:40:00,45.5,6.7,30.36,SSW,207,0.0,0.0,20,0.00,,,0.00,Wunderground v.1.15,2013-03-11 03:40:00,
2013-03-10 20:45:00,45.4,6.6,30.36,SSW,210,0.0,0.0,20,0.00,,,0.00,Wunderground v.1.15,2013-03-11 03:45:00,
2013-03-10 20:51:00,45.4,6.6,30.36,SSW,210,0.0,0.0,20,0.00,,,0.00,Wunderground v.1.15,2013-03-11 03:51:00,
2013-03-10 20:57:00,45.4,6.6,30.36,SSW,212,0.0,0.0,20,0.00,,,0.00,Wunderground v.1.15,2013-03-11 03:57:00,
2013-03-10 21:00:00,45.4,6.6,30.36,SSW,213,0.0,0.0,20,0.00,,,0.00,Wunderground v.1.15,2013-03-11 04:00:00,
2013-03-10 21:01:00,45.4,6.6,30.36,SSW,212,0.0,0.0,20,0.00,,,0.00,Wunderground v.1.15,2013-03-11 04:01:00,
2013-03-10 21:02:00,45.4,6.6,30.35,SSW,213,0.0,0.0,20,0.00,,,0.00,Wunderground v.1.15,2013-03-11 04:02:00,
2013-03-10 21:04:00,45.4,6.6,30.36,SW,214,0.0,0.0,20,0.00,,,0.00,Wunderground v.1.15,2013-03-11 04:04:00,
2013-03-10 21:10:00,45.3,6.5,30.36,SW,229,0.0,1.0,20,0.00,,,0.00,Wunderground v.1.15,2013-03-11 04:10:00,
2013-03-10 21:15:00,45.3,6.5,30.36,SW,226,1.0,2.0,20,0.00,,,0.00,Wunderground v.1.15,2013-03-11 04:15:00,
2013-03-10 21:21:00,44.9,7.3,30.35,SW,214,1.0,2.0,21,0.00,,,0.00,Wunderground v.1.15,2013-03-11 04:21:00,
2013-03-10 21:27:00,44.2,6.7,30.36,SW,224,1.0,2.0,21,0.00,,,0.00,Wunderground v.1.15,2013-03-11 04:27:00,
2013-03-10 21:32:00,43.2,6.8,30.36,WSW,238,0.0,1.0,22,0.00,,,0.00,Wunderground v.1.15,2013-03-11 04:32:00,
2013-03-10 21:37:00,42.8,7.5,30.36,SW,234,0.0,1.0,23,0.00,,,0.00,Wunderground v.1.15,2013-03-11 04:37:00,
2013-03-10 21:43:00,43.8,7.4,30.36,SW,234,1.0,2.0,22,0.00,,,0.00,Wunderground v.1.15,2013-03-11 04:43:00,
2013-03-10 21:49:00,44.3,6.7,30.36,SW,234,2.0,2.0,21,0.00,,,0.00,Wunderground v.1.15,2013-03-11 04:49:00,
2013-03-10 21:55:00,43.5,7.1,30.36,WSW,238,2.0,3.0,22,0.00,,,0.00,Wunderground v.1.15,2013-03-11 04:55:00,
2013-03-10 22:00:00,42.5,7.2,30.36,WSW,244,2.0,2.0,23,0.00,,,0.00,Wunderground v.1.15,2013-03-11 05:00:00,
2013-03-10 22:06:00,41.8,6.6,30.36,WSW,239,1.0,2.0,23,0.00,,,0.00,Wunderground v.1.15,2013-03-11 05:06:00,
2013-03-10 22:12:00,41.7,6.6,30.36,SW,231,2.0,3.0,23,0.00,,,0.00,Wunderground v.1.15,2013-03-11 05:12:00,
2013-03-10 22:18:00,41.0,6.9,30.37,SW,236,2.0,3.0,24,0.00,,,0.00,Wunderground v.1.15,2013-03-11 05:18:00,
2013-03-10 22:24:00,40.2,7.1,30.37,WSW,247,1.0,3.0,25,0.00,,,0.00,Wunderground v.1.15,2013-03-11 05:24:00,
2013-03-10 22:30:00,39.6,10.7,30.37,WSW,242,0.0,0.0,30,0.00,,,0.00,Wunderground v.1.15,2013-03-11 05:30:00,
2013-03-10 22:36:00,39.0,12.3,30.36,SW,224,0.0,0.0,33,0.00,,,0.00,Wunderground v.1.15,2013-03-11 05:36:00,
2013-03-10 22:42:00,38.8,16.5,30.37,SW,229,0.0,0.0,40,0.00,,,0.00,Wunderground v.1.15,2013-03-11 05:42:00,
2013-03-10 22:47:00,38.9,16.0,30.37,WSW,238,0.0,0.0,39,0.00,,,0.00,Wunderground v.1.15,2013-03-11 05:47:00,
2013-03-10 22:52:00,38.9,16.0,30.37,SW,234,0.0,0.0,39,0.00,,,0.00,Wunderground v.1.15,2013-03-11 05:52:00,
2013-03-10 22:58:00,38.9,14.2,30.37,SW,218,0.0,2.0,36,0.00,,,0.00,Wunderground v.1.15,2013-03-11 05:58:00,
2013-03-10 23:04:00,39.3,13.9,30.37,SW,225,1.0,3.0,35,0.00,,,0.00,Wunderground v.1.15,2013-03-11 06:04:00,
2013-03-10 23:10:00,39.6,13.5,30.36,SW,224,2.0,2.0,34,0.00,,,0.00,Wunderground v.1.15,2013-03-11 06:10:00,
2013-03-10 23:15:00,39.7,14.9,30.36,SW,217,1.0,3.0,36,0.00,,,0.00,Wunderground v.1.15,2013-03-11 06:15:00,
2013-03-10 23:21:00,40.0,13.8,30.36,SW,221,1.0,1.0,34,0.00,,,0.00,Wunderground v.1.15,2013-03-11 06:21:00,
2013-03-10 23:27:00,39.8,13.7,30.36,SW,214,1.0,2.0,34,0.00,,,0.00,Wunderground v.1.15,2013-03-11 06:27:00,
2013-03-10 23:32:00,39.7,14.2,30.36,SSW,210,2.0,4.0,35,0.00,,,0.00,Wunderground v.1.15,2013-03-11 06:32:00,
2013-03-10 23:38:00,39.7,12.9,30.36,SW,214,4.0,6.0,33,0.00,,,0.00,Wunderground v.1.15,2013-03-11 06:38:00,
2013-03-10 23:43:00,39.6,12.8,30.36,SSW,210,5.0,5.0,33,0.00,,,0.00,Wunderground v.1.15,2013-03-11 06:43:00,
2013-03-10 23:48:00,39.5,14.1,30.36,SW,217,4.0,5.0,35,0.00,,,0.00,Wunderground v.1.15,2013-03-11 06:48:00,
2013-03-10 23:55:00,39.4,15.9,30.36,SW,231,4.0,5.0,38,0.00,,,0.00,Wunderground v.1.15,2013-03-11 06:55:00,